Location: Arbon
(43.0005°N, 0.7472°E)
Time: 22:45:15
(UTC+00:00)

Explorer 7 - Pass Details

Date: 30 November 2020
Orbit: 484 x 678 km, 50.3° (Epoch: 25 January)

Event Time Altitude Azimuth Distance (km) Brightness Sun altitude
Rises 01:16:39 0° 231° (SW) 2,959 - -61.5°
Reaches altitude 10° 01:19:02 10° 230° (SW) 2,027 - -61.2°
Maximum altitude 01:23:41 72° 147° (SSE) 650 - -60.5°
Drops below altitude 10° 01:28:05 10° 63° (ENE) 1,918 - -59.9°
Sets 01:30:17 0° 61° (ENE) 2,787 - -59.6°
